Hatteras, NC

11:41 PM EDT on June 27, 2017 (GMT -0400)
Mitchell

Weather History for KHSE - November, 2013

Change the Weather History Date:

Saturday, November 30, 2013

  Actual Average Record
Temperature  
Mean Temperature 52 °F 54 °F  
Max Temperature 56 °F 60 °F 77 °F (1991)
Min Temperature 47 °F 47 °F 26 °F (1929)
Degree Days  
Heating Degree Days 13 12  
Month to date heating degree days 268 242  
Since 1 July heating degree days 319 318  
Cooling Degree Days 0 0  
Month to date cooling degree days 22 21  
Year to date cooling degree days 1990 1711  
Moisture  
Dew Point 45 °F    
Average Humidity 83    
Maximum Humidity 93    
Minimum Humidity 72    
Precipitation  
Precipitation 0.00 in 0.15 in 1.79 in (1997)
Month to date precipitation 3.94 4.95  
Year to date precipitation 49.42 53.77  
Snow  
Snow 0.00 in - - ()
Month to date snowfall 0.0  
Since 1 July snowfall 0.0  
Snow Depth 0.00 in    
Sea Level Pressure  
Sea Level Pressure 30.46 in    
Wind  
Wind Speed 8 mph (NNE)    
Max Wind Speed 14 mph    
Max Gust Speed 25 mph    
Visibility 10 miles    
Events      
T = Trace of Precipitation, MM = Missing Value Source: NWS Daily Summary

Daily Weather History Graph

Daily Weather History Graph

Search for Another Location

Airport or City:

Trip Planner

Search our weather history database for the weather conditions in past years. The results will help you decide how hot, cold, wet, or windy it might be!

Date:

Astronomy

Nov. 30, 2013 Rise Set
Actual Time 6:51 AM EST 4:50 PM EST
Civil Twilight 6:24 AM EST 5:18 PM EST
Nautical Twilight 5:52 AM EST 5:49 PM EST
Astronomical Twilight 5:22 AM EST 6:20 PM EST
Moon 4:05 AM EST (11/30) 3:08 PM EST (11/30)
Length of Visible Light 10h 54m
Length of Day
9h 58m
Waning Crescent, 7% of the Moon is Illuminated
Nov 30
Waning Crescent
Dec 2
New
Dec 9
First Quarter
Dec 17
Full
Dec 25
Last Quarter

Hourly Weather History & Observations

Time (EST) Temp. Dew Point Humidity Pressure Visibility Wind Dir Wind Speed Gust Speed Precip Events Conditions
12:51 AM 46.9 °F 39.0 °F 74% 30.54 in 10.0 mi NNE 9.2 mph 17.3 mph N/A   Clear
1:51 AM 46.9 °F 39.9 °F 77% 30.54 in 10.0 mi Variable 6.9 mph - N/A   Clear
2:51 AM 48.0 °F 41.0 °F 77% 30.54 in 10.0 mi NNE 8.1 mph 17.3 mph N/A   Clear
3:51 AM 48.0 °F 42.1 °F 80% 30.53 in 10.0 mi NNE 8.1 mph - N/A   Clear
4:51 AM 48.0 °F 41.0 °F 77% 30.52 in 10.0 mi Variable 5.8 mph - N/A   Clear
5:51 AM 48.0 °F 42.1 °F 80% 30.52 in 10.0 mi NNE 8.1 mph - N/A   Clear
6:51 AM 48.0 °F 43.0 °F 83% 30.52 in 10.0 mi NNE 5.8 mph - N/A   Clear
7:51 AM 50.0 °F 45.0 °F 83% 30.53 in 10.0 mi NNE 6.9 mph - N/A   Clear
8:51 AM 52.0 °F 46.0 °F 80% 30.53 in 10.0 mi NNE 9.2 mph - N/A   Clear
9:51 AM 54.0 °F 46.0 °F 75% 30.53 in 10.0 mi NNE 8.1 mph 16.1 mph N/A   Clear
10:51 AM 55.0 °F 46.0 °F 72% 30.51 in 10.0 mi NNE 10.4 mph 21.9 mph N/A   Clear
11:51 AM 55.9 °F 46.9 °F 72% 30.49 in 10.0 mi NNE 8.1 mph 17.3 mph N/A   Clear
12:51 PM 55.9 °F 46.9 °F 72% 30.46 in 10.0 mi NNE 9.2 mph 18.4 mph N/A   Clear
1:51 PM 55.9 °F 46.9 °F 72% 30.44 in 10.0 mi NNE 9.2 mph 21.9 mph N/A   Clear
2:51 PM 55.0 °F 46.9 °F 74% 30.42 in 10.0 mi NNE 10.4 mph - N/A   Clear
3:51 PM 53.1 °F 46.9 °F 80% 30.42 in 10.0 mi North 9.2 mph 17.3 mph N/A   Clear
4:51 PM 51.1 °F 46.9 °F 86% 30.41 in 10.0 mi NNE 9.2 mph 19.6 mph N/A   Clear
5:51 PM 50.0 °F 46.9 °F 89% 30.39 in 10.0 mi NNE 8.1 mph - N/A   Scattered Clouds
6:51 PM 50.0 °F 46.9 °F 89% 30.38 in 10.0 mi NNE 8.1 mph - N/A   Clear
7:51 PM 50.0 °F 46.9 °F 89% 30.37 in 10.0 mi NNE 8.1 mph - N/A   Clear
8:51 PM 50.0 °F 48.0 °F 93% 30.36 in 10.0 mi NNE 8.1 mph - N/A   Clear
9:51 PM 50.0 °F 48.0 °F 93% 30.34 in 10.0 mi North 6.9 mph - N/A   Clear
10:51 PM 50.0 °F 48.0 °F 93% 30.33 in 10.0 mi Variable 5.8 mph - N/A   Clear
11:51 PM 48.9 °F 48.0 °F 97% 30.31 in 10.0 mi North 6.9 mph - N/A   Clear